User: anonymous   Login
Location: McDonald Observatory
(30.6717°N, 104.0221°W)
Time: 19:45:29
(UTC-05:00)
Language:

Cosmos 1484 Rocket - Orbit

View from above orbital plane
View from above orbital plane
View from above satellite
View from above satellite

Ground track
Ground track

The orbit data is extracted from the following two-line orbital elements,

1 14208U 83075B   17084.95629266 +.00000452 +00000-0 +30835-4 0  9997
2 14208 097.3438 098.9319 0040928 059.6768 300.8501 15.10304609834645
Epoch (UTC): 25 March 2017 22:57:03
Eccentricity: 0.0040928
inclination: 97.3438°
perigee height: 507 km
apogee height: 563 km
right ascension of ascending node: 98.9319°
argument of perigee: 59.6768°
revolutions per day: 15.10304609
mean anomaly at epoch: 300.8501°
orbit number at epoch: 83464

The dashed part of the orbit path shows where the satellite is in the earth's shadow,  

DLR